Showing default

SHIYAN 27F, 63604

Orbit data source: Space-Track

SHIYAN 27F, 63604 is a payload satellite owned by CAST (CN) in SSO that was launched on Fri, 18 Apr 2025 UTC via a CHANG ZHENG 6A launch vehicle from the Taiyaun Space Center, China (TSC). Payload-class satellites include a variety of spacecraft equipped with specific instruments for various scientific and technological missions. These include communications satellites like Starlink; space stations such as the ISS; scientific satellites like the Hubble; Earth observation satellites from companies like Planet Labs, Umbra, and HawkEye 360; GPS; miniature CubeSats for education and research; and military/defense satellites.

Loading next visibility...
Identifier
63604, 2025-078F
Orbit
SSO
Country
Flag of CNCN / PRC
Related business
Manufacturer
CAST
Mission
Operational Defense Radar Imaging
Bus & Motor
SW27, Unknown motor
Mass
300 kg wet, ~300 kg dry
Launch date (UTC)
2025-04-18 (10 months ago)
Launch vehicle
CHANG ZHENG 6A
Launch site
Taiyaun Space Center, China (TSC)
Object type
Payload
Rocket body
Debris
Shape & HBR
Box + 1 Pan, 14.5 m
Radar Cross Section
13.200 m², Large (>1 m²)

Expand to show TLE details & history
Last TLE update: 5 hours ago

TLE from 5 hours ago
0 SHIYAN 27F
1 63604U 25078F   26035.19935788  .00000000  00000-0  62541-4 0  9999
2 63604  99.6935  44.3941 0000738  85.3616 274.7607 13.57236308 39490
Epoch: 2026-02-04T04:47Z
TLE epoch observation values (Epoch: 2026-02-04T04:47:04.520Z)
Latitude
-0°
Longitude
-161.7441°
Altitude
1,048.503 km
Speed
7.328 km/s
True Right ascension
02h 57m 34s
True Declination
0° 00' 00"
Sunlit
Object was in daylight at epoch
Visualization orbit readout
Latitude
Unknown
Longitude
Unknown
Altitude
Unknown
Speed
Unknown
Apparent Right ascension
Unknown
Apparent Declination
Unknown
Sunlit
N/A
Visualization observer readout
Local Sidereal Time
11:35:44
Azimuth
Unknown
Elevation
Unknown
Doppler factor
Unknown
Orbital elements
Apogee altitude
1,043.592 km
Perigee altitude
1,042.497 km
Semi-major axis
7,421.181 km
Eccentricity
0.00007
Inclination
99.6935°
RAAN
44.3941°
Arg. of periapsis
85.3616°
True anomaly
274.75227°
Mean anomaly
274.7607°
Eccentric anomaly
274.75649°
Mean motion
3.39495 °/min
Orbital period
106.04 mins
BSTAR
0.000062541
Loading maneuver chart data...
Computing Atmospheric mass density...
Loading historical data...
Loading historical data...
Loading historical data...
Loading historical data...
Loading historical data...
Loading historical data...
Loading historical data...

Documentation

Showing up to 5 results
|